Wetbulb
47.57 47.77 47.51 48.23 48.19 48.47 46.89 38.98 31.90 40.55 43.17 34.90 31.37 28.30 33.26 40.25 39.53 41.42 40.38 42.13 42.00 40.85 41.76 40.41 37.82 38.80 41.58 45.04 44.25 40.86 42.43 38.07 34.16 37.43 43.25 44.92 43.18 41.16 40.15 32.99 32.15 33.62 32.43 33.42
47.30 47.32 47.22 47.91 48.26 48.01 41.77 33.64 34.25 43.44 42.39 29.88 30.56 32.66 34.66 37.79 38.99 38.18 40.22 40.44 42.58 43.41 40.85 37.27 41.20 42.09 45.23 44.38 43.10 40.99 41.73 35.44 29.85 34.08 37.92 40.98 39.72 41.14 40.61 38.75 36.18 33.32 30.31 32.37
47.30 47.16 46.98 47.56 47.92 47.92 43.94 35.05 29.61 36.55 41.10 37.97 33.32 32.24 32.02 32.72 39.75 37.98 39.47 40.12 41.37 39.78 38.70 41.17 39.06 40.96 45.49 46.01 43.55 46.48 44.99 37.19 35.39 33.07 34.28 38.08 35.35 39.15 39.39 38.40 32.12 32.85 33.13 35.76
46.99 46.91 47.01 47.33 47.81 47.86 43.05 34.19 33.05 35.38 31.42 35.98 35.78 34.58 34.46 32.79 34.57 38.47 39.52 38.02 38.55 37.77 35.10 37.16 37.71 41.20 43.35 45.16 45.05 42.90 41.83 35.71 36.31 37.58 40.15 40.06 39.83 39.28 38.79 37.27 37.27 34.45 36.76 37.12
47.12 46.81 47.34 47.06 47.64 47.66 38.76 32.65 32.47 37.27 36.09 39.54 35.66 36.23 36.14 34.50 35.43 38.13 36.61 35.60 38.83 38.92 35.86 38.10 36.36 40.22 41.02 40.54 42.10 40.20 40.84 35.06 36.50 34.14 39.06 39.33 37.19 39.84 39.49 39.04 38.76 37.68 38.19 36.65
46.67 46.65 47.06 47.07 47.42 46.61 35.81 38.47 39.06 37.54 34.42 37.03 37.35 34.94 35.51 37.78 38.80 40.12 41.14 40.49 38.97 38.21 39.03 41.24 42.06 43.58 44.08 43.74 41.42 39.65 38.74 36.71 33.30 31.07 37.34 37.38 31.56 36.79 38.07 38.71 39.52 39.20 34.87 38.55
46.57 46.57 46.81 47.16 47.13 46.61 41.76 40.35 39.47 35.91 29.75 34.25 35.07 38.13 40.36 37.32 40.01 38.48 43.07 43.88 40.79 42.29 47.27 44.71 42.60 40.93 41.24 42.79 40.95 43.51 38.63 36.53 33.29 29.70 33.10 23.03 36.33 41.63 41.30 40.50 42.00 42.70 42.63 42.61
46.40 46.75 46.97 47.09 46.82 47.66 43.42 43.45 40.50 37.05 32.26 34.90 36.22 38.49 38.99 40.00 42.58 40.78 40.70 41.60 42.76 43.81 43.73 37.58 35.10 32.34 35.58 37.02 39.42 39.50 41.56 37.59 31.74 29.78 28.64 33.66 37.62 41.05 40.53 38.61 37.65 42.11 41.54 41.60
46.40 46.63 47.08 47.18 46.80 47.52 45.37 43.57 44.93 41.57 36.08 35.55 39.40 37.16 39.97 37.47 38.70 39.35 40.60 42.56 42.73 42.83 38.69 34.24 29.86 27.85 31.31 31.14 35.63 40.69 40.12 38.39 35.45 30.11 28.44 27.54 35.87 40.46 42.87 41.93 33.11 42.56 42.22 40.88
45.86 46.23 46.97 47.18 47.11 47.61 44.64 42.63 44.72 42.04 35.42 40.01 40.30 37.90 38.06 43.02 41.77 38.90 40.26 40.28 39.71 42.29 33.00 31.18 30.04 30.54 36.99 30.16 30.30 31.65 32.73 31.92 29.53 27.79 29.02 31.52 38.75 43.65 43.78 32.24 33.15 42.17 42.36 41.95
45.33 46.05 46.87 46.72 46.75 47.15 44.44 41.82 45.28 42.12 37.33 39.18 41.37 40.65 38.54 40.43 40.37 37.08 39.70 38.91 38.42 35.72 31.86 32.80 31.64 31.82 34.67 34.06 36.11 34.15 31.40 30.47 29.13 31.28 28.43 26.79 42.36 42.74 36.48 38.28 42.00 42.91 42.09 41.91
44.64 45.86 46.64 46.67 46.94 47.55 45.18 40.03 45.82 46.60 39.45 38.66 44.20 43.92 42.37 41.09 39.89 39.04 40.04 39.75 38.62 36.91 34.36 33.88 34.15 30.66 32.54 32.96 29.39 38.57 31.89 35.46 32.32 33.89 32.58 39.88 41.28 41.58 43.15 43.64 42.33 42.48 42.41 41.60
44.58 44.95 46.34 46.72 47.08 47.63 44.26 41.56 43.52 42.56 39.17 38.30 38.62 38.54 42.09 44.50 43.00 43.91 39.04 38.85 41.51 40.10 37.54 34.67 34.69 31.09 32.76 29.05 31.11 34.42 37.68 39.49 35.95 36.53 37.95 37.57 36.47 37.85 39.21 41.53 40.50 40.87 40.86 40.12
44.22 44.81 46.02 46.35 46.65 46.96 44.08 41.83 44.05 43.04 39.73 31.33 34.26 43.36 39.22 43.57 43.96 43.43 43.84 42.90 40.38 40.72 38.73 34.73 33.03 31.00 35.26 31.25 33.27 33.17 35.71 37.06 35.47 34.13 36.92 36.72 36.71 36.70 37.74 38.17 38.56 38.08 38.73 38.12
43.63 45.03 45.59 46.49 46.64 47.58 43.53 42.46 42.33 44.65 34.99 27.29 31.23 38.24 39.87 41.45 42.67 41.61 41.26 40.71 39.30 35.64 34.29 31.89 29.38 30.85 31.63 31.14 32.46 31.06 34.78 34.18 32.72 30.98 36.53 35.12 34.03 35.50 37.54 36.31 36.16 37.32 36.71 36.19
43.18 44.46 43.56 45.33 46.26 44.98 41.06 33.26 41.52 40.91 38.47 31.47 26.96 36.11 37.27 39.66 39.92 38.35 37.04 36.89 34.87 35.26 33.70 30.96 31.86 33.52 31.69 27.11 26.27 32.46 35.10 36.47 36.92 34.76 37.90 36.86 36.41 38.01 39.03 38.98 39.00 38.82 38.39 38.40
43.63 43.77 44.21 44.46 46.28 42.68 36.20 33.62 37.34 42.50 39.82 31.85 26.17 28.11 34.69 38.47 37.62 36.10 35.14 36.31 33.73 33.46 31.08 30.38 30.57 31.15 29.61 26.36 24.56 31.87 34.75 36.65 37.20 37.53 36.26 33.65 35.43 35.66 38.10 38.03 38.62 39.39 38.77 39.04
44.54 44.37 44.09 45.69 44.68 42.33 36.98 38.83 43.81 41.95 37.11 32.92 24.75 25.19 29.23 34.98 29.88 30.54 34.11 30.47 31.85 31.80 28.02 29.12 26.89 27.98 27.02 23.85 29.43 32.79 34.36 34.39 34.78 35.80 35.77 35.26 37.33 35.88 35.05 35.07 34.74 34.11 34.56 35.82
44.10 44.09 45.77 41.98 39.68 36.48 36.74 43.85 43.98 40.90 35.45 25.27 25.67 23.58 22.50 33.97 31.44 31.50 29.91 29.11 24.89 29.04 23.47 26.40 27.12 26.21 23.94 27.83 29.58 31.03 32.69 32.70 35.09 36.86 36.61 35.84 33.76 33.27 33.53 33.93 33.82 33.09 33.46 34.69
44.69 40.53 34.39 31.46 37.67 43.74 43.33 38.26 34.00 32.95 31.50 31.06 24.02 27.56 25.00 31.17 29.28 27.44 27.26 27.09 25.55 24.15 27.25 29.29 25.85 25.51 30.21 31.49 32.78 33.21 33.61 33.37 36.64 33.34 31.94 32.64 31.67 32.22 32.73 33.19 34.34 34.44 34.33 34.81
35.69 32.22 32.75 38.88 44.20 38.55 33.79 25.31 27.58 26.17 23.07 28.26 28.67 28.00 28.45 32.35 26.40 25.60 28.17 24.71 24.98 22.32 25.06 24.93 24.05 23.73 29.01 34.53 35.54 35.96 35.35 34.43 35.72 35.43 34.65 34.54 33.51 32.71 32.30 32.68 34.20 34.36 34.32 34.04
37.23 38.41 39.81 38.95 34.37 27.98 23.23 22.17 23.60 24.00 22.59 27.59 26.90 28.35 29.49 29.80 32.61 27.47 26.47 23.78 23.59 21.24 25.09 21.03 22.47 27.09 31.37 33.36 35.46 35.77 35.64 35.54 35.31 35.04 34.45 34.51 34.10 33.80 33.33 33.27 33.16 33.49 34.29 34.78
39.18 35.38 32.74 29.53 23.66 17.65 18.11 13.96 22.83 21.68 26.81 28.02 28.63 26.81 28.48 28.90 29.84 26.52 24.61 18.30 18.46 25.60 12.35 17.14 21.46 26.95 31.37 32.42 35.55 36.14 36.41 35.37 34.79 34.71 34.91 34.92 34.61 34.81 33.52 32.58 33.03 33.32 33.23 33.98
31.20 26.68 22.56 21.89 18.44 22.00 23.59 24.18 24.83 27.83 28.86 31.58 29.01 26.74 26.43 27.11 26.18 25.68 21.91 23.48 22.53 13.93 12.45 17.60 20.52 27.48 30.84 32.54 35.01 35.38 34.87 35.51 34.80 34.49 34.39 33.47 32.98 32.77 33.18 32.64 32.71 31.85 31.88 32.80
30.11 29.23 17.86 23.00 26.01 26.86 25.89 27.48 28.00 29.04 32.74 30.48 27.52 26.74 26.02 22.30 21.72 23.75 24.03 18.87 17.68 20.67 17.29 20.08 22.78 29.41 31.08 31.59 32.76 33.52 33.02 32.89 33.36 34.45 34.11 32.62 32.34 32.08 31.77 32.01 32.50 32.22 30.87 29.83
32.11 30.55 25.41 26.50 24.98 23.60 25.63 27.20 29.30 30.04 29.32 29.47 27.99 23.76 23.07 22.34 22.62 20.15 19.64 20.36 16.74 20.29 22.20 24.47 28.07 30.24 31.44 32.13 33.28 34.00 34.21 33.68 33.53 33.54 32.99 32.02 29.23 28.17 30.77 28.97 29.21 27.44 27.37 25.88
30.60 27.91 29.45 27.64 26.63 25.87 26.53 27.94 29.18 32.43 29.12 23.76 23.83 18.93 21.90 23.57 18.93 20.82 20.40 18.06 21.64 23.58 23.96 27.37 30.07 30.56 31.20 32.81 33.19 33.70 34.22 33.94 33.60 33.43 32.83 32.16 32.17 28.42 28.89 27.74 31.28 29.93 30.75 27.13
MSLP
1019.01 1018.81 1018.75 1018.61 1018.57 1018.56 1018.84 1018.74 1017.99 1016.47 1016.70 1017.69 1016.81 1015.23 1013.09 1011.12 1009.58 1008.74 1008.59 1007.74 1007.13 1006.70 1006.57 1006.37 1006.46 1006.26 1005.73 1005.17 1006.10 1007.33 1007.88 1008.71 1009.27 1008.68 1008.17 1008.10 1008.57 1009.67 1010.93 1012.83 1014.52 1014.57 1014.01 1012.26
1018.10 1017.95 1017.91 1017.79 1017.79 1017.93 1018.57 1018.01 1017.58 1016.25 1015.39 1015.44 1015.20 1013.81 1012.49 1011.44 1009.93 1008.76 1008.46 1007.93 1007.25 1006.69 1006.59 1006.59 1006.25 1005.92 1005.51 1005.33 1005.76 1006.17 1007.39 1008.25 1009.41 1009.07 1008.82 1008.45 1008.64 1009.36 1010.40 1011.51 1012.58 1013.55 1013.71 1012.20
1017.11 1016.96 1016.94 1016.93 1016.94 1017.15 1017.83 1017.38 1017.03 1015.87 1015.22 1013.58 1013.46 1013.03 1012.10 1010.93 1009.92 1009.21 1008.82 1008.26 1007.67 1007.26 1006.98 1006.60 1006.52 1006.18 1005.72 1005.63 1005.68 1005.87 1006.21 1007.55 1008.35 1008.52 1008.72 1008.71 1009.11 1009.31 1009.93 1010.71 1012.25 1012.66 1012.37 1011.79
1016.11 1015.97 1015.92 1015.98 1016.08 1016.23 1016.78 1016.59 1015.74 1014.77 1013.53 1012.99 1012.55 1012.09 1011.12 1010.50 1009.53 1008.97 1008.55 1008.35 1008.07 1007.95 1007.73 1007.31 1006.95 1006.48 1006.17 1005.93 1006.14 1006.39 1006.74 1007.72 1008.28 1008.22 1008.09 1008.43 1008.46 1008.67 1009.34 1010.08 1010.62 1011.44 1011.42 1011.54
1014.98 1014.91 1014.94 1015.08 1015.20 1015.40 1015.68 1015.81 1015.47 1014.33 1013.00 1012.10 1012.08 1011.72 1010.74 1009.85 1009.39 1008.85 1008.24 1008.29 1008.04 1007.99 1008.09 1007.61 1007.21 1006.93 1006.67 1006.52 1006.60 1006.83 1007.35 1008.25 1008.41 1008.89 1008.59 1008.47 1008.49 1008.44 1008.80 1009.40 1010.04 1010.63 1010.84 1011.19
1014.07 1014.02 1014.12 1014.22 1014.28 1014.76 1014.75 1015.17 1015.05 1014.34 1012.46 1011.75 1011.20 1010.45 1010.21 1009.55 1009.08 1008.42 1007.83 1007.84 1008.15 1007.89 1007.45 1007.22 1007.08 1007.03 1006.76 1006.61 1006.89 1007.39 1008.03 1008.67 1009.40 1009.89 1009.35 1009.01 1009.12 1008.33 1008.35 1008.91 1009.26 1009.87 1010.87 1010.88
1013.24 1013.28 1013.31 1013.42 1013.43 1013.81 1014.17 1014.12 1014.15 1013.79 1012.66 1011.65 1010.50 1010.29 1010.04 1009.55 1008.86 1008.38 1007.75 1007.76 1007.74 1007.03 1006.94 1007.55 1007.56 1007.49 1007.49 1007.12 1007.27 1007.34 1008.47 1009.35 1010.13 1010.77 1010.23 1009.74 1008.37 1007.80 1007.87 1008.79 1009.86 1010.34 1010.77 1011.22
1012.34 1012.50 1012.57 1012.60 1012.52 1012.82 1013.16 1013.23 1013.58 1013.15 1012.19 1011.42 1010.56 1009.76 1009.29 1009.37 1009.01 1008.64 1008.26 1007.95 1007.52 1007.44 1007.30 1008.07 1008.64 1008.80 1008.28 1007.99 1007.80 1008.09 1008.28 1009.62 1011.05 1011.41 1011.27 1010.32 1009.01 1008.39 1008.57 1008.87 1010.69 1011.10 1011.58 1011.86
1011.73 1011.81 1011.83 1011.81 1011.67 1011.90 1012.40 1012.53 1012.63 1012.59 1012.07 1011.23 1010.60 1010.12 1009.18 1008.85 1009.07 1009.10 1008.20 1007.79 1007.42 1007.57 1007.82 1008.61 1009.26 1009.20 1008.66 1008.74 1008.74 1008.88 1009.07 1009.43 1010.75 1011.80 1011.48 1010.43 1009.30 1008.53 1008.25 1008.82 1010.69 1011.52 1012.02 1012.52
1011.45 1011.25 1011.19 1011.17 1011.17 1011.26 1011.78 1011.86 1012.25 1012.16 1011.92 1011.34 1010.98 1010.19 1009.41 1008.39 1008.67 1008.13 1008.09 1008.01 1007.96 1007.94 1008.35 1009.37 1009.66 1009.38 1008.61 1008.87 1008.96 1009.66 1010.21 1010.81 1011.63 1012.08 1011.71 1010.89 1009.49 1009.12 1009.04 1009.95 1011.25 1011.72 1012.50 1012.91
1011.14 1010.74 1010.58 1010.56 1010.50 1010.76 1011.05 1011.69 1011.74 1011.92 1011.89 1011.42 1011.04 1010.63 1010.25 1009.26 1009.28 1008.71 1008.49 1008.82 1008.80 1008.99 1009.21 1009.50 1009.66 1009.59 1008.91 1008.84 1008.72 1008.96 1009.82 1011.00 1011.82 1012.20 1012.03 1011.33 1009.74 1009.68 1009.90 1010.64 1011.35 1011.96 1012.65 1013.03
1010.85 1010.37 1009.96 1009.94 1009.89 1010.15 1010.82 1011.51 1011.51 1011.81 1011.91 1011.68 1011.21 1010.93 1010.87 1010.63 1010.51 1009.92 1009.19 1008.88 1009.13 1009.24 1009.16 1009.59 1009.56 1010.07 1009.73 1009.22 1009.51 1009.02 1009.85 1010.12 1010.68 1011.42 1011.66 1011.36 1010.89 1010.52 1010.38 1010.68 1011.51 1012.27 1012.64 1013.07
1010.54 1010.12 1009.57 1009.32 1009.50 1009.60 1010.37 1011.12 1011.43 1011.86 1011.70 1011.86 1011.54 1011.10 1010.92 1010.58 1010.58 1010.43 1010.19 1009.41 1008.93 1009.03 1009.47 1009.46 1009.76 1010.25 1010.46 1010.32 1010.28 1010.27 1010.28 1010.16 1010.74 1011.27 1012.33 1012.23 1011.91 1011.48 1011.38 1011.67 1012.39 1012.78 1013.03 1013.26
1010.29 1009.87 1009.33 1009.15 1009.49 1009.69 1010.33 1010.76 1011.05 1011.35 1011.59 1011.91 1011.98 1011.45 1011.18 1010.37 1010.26 1010.03 1009.96 1009.70 1009.25 1009.18 1009.88 1009.95 1010.36 1010.95 1010.90 1011.16 1010.93 1010.78 1010.90 1010.66 1011.34 1012.44 1012.71 1012.66 1012.74 1012.74 1012.79 1012.96 1013.10 1013.40 1013.68 1013.84
1010.01 1009.56 1009.22 1009.05 1008.86 1009.22 1010.31 1010.70 1011.06 1011.17 1011.90 1011.91 1012.20 1012.18 1011.79 1010.79 1010.43 1010.33 1010.26 1010.05 1009.57 1010.25 1010.67 1011.13 1011.77 1011.56 1011.53 1011.98 1011.63 1011.65 1011.54 1011.45 1011.78 1012.41 1012.77 1013.02 1013.69 1013.68 1013.65 1013.89 1014.20 1014.22 1014.35 1014.57
1009.73 1009.44 1009.34 1009.14 1009.11 1009.25 1010.34 1011.44 1011.09 1010.91 1011.44 1011.55 1012.14 1011.92 1011.99 1011.23 1011.05 1011.10 1011.03 1010.70 1010.79 1011.50 1011.83 1012.59 1012.36 1012.18 1012.29 1013.01 1013.03 1012.50 1011.93 1011.71 1011.76 1012.41 1012.71 1013.26 1014.11 1014.25 1014.37 1014.58 1014.94 1015.17 1015.29 1015.55
1009.14 1009.14 1009.08 1008.93 1008.73 1009.56 1010.40 1010.39 1010.00 1009.88 1011.06 1011.35 1012.20 1012.14 1011.65 1011.54 1011.70 1011.45 1011.17 1011.15 1011.78 1011.99 1013.14 1013.51 1013.31 1013.19 1012.89 1013.78 1013.64 1012.75 1012.65 1012.49 1012.53 1012.78 1013.23 1014.11 1014.56 1015.13 1015.30 1015.38 1015.57 1015.70 1015.91 1016.05
1008.15 1008.43 1008.80 1008.92 1009.27 1010.15 1010.34 1009.35 1009.28 1009.73 1010.53 1011.04 1012.22 1012.60 1012.26 1011.63 1012.20 1012.47 1012.36 1012.63 1012.86 1013.26 1014.10 1014.13 1014.22 1013.89 1013.97 1014.32 1013.72 1013.21 1012.89 1012.99 1013.12 1013.22 1013.45 1013.92 1014.97 1015.58 1015.88 1015.95 1016.08 1016.17 1016.29 1016.36
1007.61 1007.88 1008.26 1009.48 1010.32 1010.52 1009.55 1009.08 1009.33 1009.54 1010.47 1011.07 1012.11 1012.55 1012.67 1012.08 1012.69 1013.04 1013.38 1013.70 1014.61 1014.78 1015.01 1015.12 1014.97 1015.02 1014.74 1014.15 1013.66 1013.39 1013.28 1013.35 1013.78 1013.96 1014.26 1014.76 1015.34 1015.89 1016.11 1016.24 1016.43 1016.49 1016.58 1016.58
1007.20 1007.83 1009.22 1009.82 1009.78 1009.28 1009.32 1010.02 1010.04 1010.01 1010.57 1011.13 1011.98 1012.22 1012.47 1012.48 1013.07 1013.86 1014.40 1014.78 1015.34 1015.65 1015.84 1015.26 1015.12 1015.09 1014.51 1013.95 1013.70 1013.52 1013.45 1013.63 1013.98 1014.57 1015.24 1015.62 1015.97 1016.02 1016.09 1016.18 1016.32 1016.51 1016.64 1016.71
1007.46 1007.98 1008.41 1008.89 1009.05 1009.38 1010.08 1010.93 1011.17 1011.22 1011.52 1011.46 1011.75 1011.92 1012.13 1012.43 1012.92 1013.88 1014.59 1015.08 1015.41 1015.65 1015.94 1015.55 1015.77 1015.44 1014.70 1014.04 1013.67 1013.48 1013.35 1013.30 1013.49 1013.72 1014.12 1014.56 1014.89 1015.30 1015.62 1015.83 1015.90 1016.05 1016.11 1016.17
1006.96 1006.85 1008.06 1008.88 1009.50 1010.51 1011.07 1011.78 1011.75 1011.45 1011.07 1011.28 1011.33 1011.60 1011.95 1012.41 1012.41 1013.66 1014.66 1015.28 1015.71 1016.38 1016.40 1016.35 1016.16 1015.25 1014.54 1014.33 1014.09 1013.86 1013.65 1013.71 1013.95 1014.15 1014.44 1014.73 1015.13 1015.30 1015.39 1015.35 1015.51 1015.52 1015.46 1015.49
1006.86 1007.57 1008.72 1009.34 1010.61 1010.98 1010.97 1011.40 1011.03 1010.77 1010.49 1010.59 1011.01 1011.78 1012.11 1012.60 1013.03 1014.42 1014.96 1015.75 1016.75 1016.79 1017.38 1017.26 1016.23 1015.19 1014.67 1014.46 1014.20 1014.05 1014.02 1013.95 1013.95 1014.17 1014.19 1014.25 1014.52 1014.85 1015.01 1015.03 1015.01 1015.12 1015.24 1015.14
1007.81 1008.41 1009.41 1009.80 1010.19 1009.90 1009.42 1009.36 1009.38 1009.31 1009.43 1010.08 1010.99 1012.10 1012.66 1013.48 1014.12 1014.92 1015.75 1016.61 1016.57 1017.36 1017.86 1017.31 1016.01 1014.91 1014.33 1014.02 1014.01 1014.11 1014.24 1014.42 1014.52 1014.55 1014.49 1014.54 1014.56 1014.51 1014.49 1014.59 1014.68 1014.88 1014.96 1014.79
1008.27 1008.57 1008.92 1009.24 1008.94 1008.85 1008.73 1008.67 1008.65 1008.91 1009.15 1010.03 1011.55 1012.68 1013.37 1014.48 1015.01 1015.51 1016.13 1016.64 1016.96 1017.19 1016.97 1016.29 1015.14 1014.46 1014.13 1013.87 1013.84 1013.88 1013.97 1014.11 1014.22 1014.10 1014.21 1014.23 1014.16 1014.31 1014.22 1014.10 1014.15 1014.30 1014.44 1014.47
1008.42 1008.66 1008.72 1008.72 1008.69 1008.82 1008.88 1008.80 1008.83 1009.00 1009.65 1010.47 1011.58 1013.26 1014.33 1015.14 1015.40 1015.91 1016.22 1016.53 1016.66 1016.28 1015.66 1014.97 1014.57 1014.30 1013.89 1013.72 1013.61 1013.60 1013.54 1013.61 1013.64 1013.66 1013.71 1013.70 1013.79 1013.82 1013.61 1013.43 1013.65 1013.78 1013.91 1013.79
1008.41 1008.24 1008.11 1008.27 1008.38 1008.44 1008.77 1008.61 1008.59 1008.75 1009.55 1011.45 1012.51 1013.81 1014.75 1015.34 1015.68 1016.11 1016.23 1015.87 1015.16 1014.78 1014.58 1014.33 1014.01 1013.79 1013.56 1013.49 1013.45 1013.39 1013.33 1013.31 1013.24 1013.18 1013.05 1012.93 1012.64 1012.69 1012.94 1013.26 1012.73 1012.51 1012.47 1012.68
Wind_Speed
22 22 21 20 18 17 13 3 4 4 12 8 5 15 9 3 10 9 5 4 4 6 5 3 7 11 9 10 11 14 11 8 8 10 5 4 6 9 8 8 5 2 5 9
23 22 21 19 17 16 3 4 3 4 6 10 8 15 13 4 5 6 5 6 3 3 6 2 2 1 2 3 10 13 9 4 2 8 4 2 5 5 5 5 4 8 8 7
23 22 21 19 18 16 4 4 3 4 5 6 12 9 14 13 7 9 2 3 3 1 1 2 2 2 2 2 1 6 9 6 10 14 5 6 5 5 6 7 5 7 7 5
24 22 21 19 18 17 6 3 5 5 6 11 16 7 6 17 7 14 6 5 9 2 2 3 4 3 3 2 2 3 7 7 6 5 9 7 6 7 9 7 6 8 7 10
21 21 20 18 16 14 4 5 2 4 3 6 18 12 7 9 16 8 13 10 1 7 9 7 1 5 3 5 0 2 2 2 3 2 5 6 4 7 8 5 4 3 4 4
18 18 18 17 16 12 2 3 3 4 3 4 8 18 18 9 8 11 12 8 11 13 9 7 8 6 3 4 7 4 3 6 4 4 4 6 3 7 6 5 3 6 6 7
17 16 16 15 17 16 3 3 3 3 4 3 8 7 7 24 12 7 3 4 10 8 7 5 4 5 3 6 2 4 6 5 3 4 3 4 7 1 6 7 4 5 6 2
16 15 15 15 16 21 4 2 4 4 3 4 8 8 8 8 14 7 1 4 4 4 6 5 3 5 2 3 2 4 3 6 4 6 4 4 2 5 7 6 4 1 4 0
13 14 15 16 15 16 7 4 2 4 1 5 4 7 5 7 6 10 7 4 2 2 3 5 6 6 6 4 2 5 6 7 6 3 6 8 8 1 1 6 4 5 6 3
14 13 15 15 14 14 7 2 3 2 2 2 3 3 4 3 5 5 4 1 1 1 3 4 4 5 5 6 9 6 2 4 5 3 3 5 5 4 3 6 6 6 7 6
17 12 14 14 14 16 9 2 3 1 2 3 1 3 4 4 2 3 2 5 2 2 3 4 4 3 5 3 5 6 7 6 4 2 4 5 1 2 7 6 5 8 6 6
18 16 13 12 14 16 11 2 3 2 2 2 2 1 2 2 3 3 4 7 2 3 4 1 4 3 1 4 4 4 3 4 6 4 5 2 4 4 5 4 7 4 6 5
18 16 13 13 12 19 11 3 4 1 1 1 2 3 6 2 1 3 2 1 3 3 2 4 3 6 1 3 2 4 2 2 4 5 4 4 5 6 7 7 8 7 7 7
20 17 10 9 11 20 9 3 3 1 2 2 2 3 4 12 5 3 3 4 3 5 2 2 3 4 1 2 3 4 1 3 5 5 4 4 9 6 6 8 8 9 6 5
19 16 7 9 7 21 6 3 1 1 2 3 2 1 6 5 4 7 5 2 4 4 3 4 2 2 4 2 3 2 2 4 4 4 4 5 2 3 5 9 7 7 7 8
19 11 6 7 7 19 6 2 4 4 3 3 2 3 3 6 1 4 2 2 3 3 3 1 2 3 3 4 2 3 2 5 3 5 3 4 7 6 4 8 7 7 8 6
19 14 11 14 15 8 3 4 2 10 4 2 3 1 2 4 3 4 4 5 3 4 3 3 2 3 4 3 3 4 3 4 4 4 5 4 1 4 4 6 5 6 6 5
17 16 16 14 18 5 4 2 4 5 3 3 4 1 2 2 2 2 3 3 4 6 2 2 3 3 3 2 4 4 3 3 1 5 6 5 8 6 5 4 4 6 6 4
16 16 23 7 2 2 4 2 6 2 4 4 3 5 3 1 2 2 4 3 4 2 3 1 3 1 1 3 2 2 2 3 5 5 7 8 7 7 6 5 4 4 1 2
19 12 3 3 4 2 7 5 3 4 4 3 3 2 3 4 2 2 2 2 2 3 1 0 3 1 3 5 6 6 6 4 8 6 4 4 5 7 6 6 5 5 4 3
3 3 2 2 9 3 3 1 3 2 2 1 3 3 4 1 4 3 1 3 0 3 3 3 2 2 2 4 3 3 4 6 9 6 4 8 8 8 7 6 5 5 5 4
4 5 6 3 3 3 5 2 1 3 5 2 5 4 4 1 3 4 3 4 3 3 1 4 1 4 1 2 2 3 5 7 7 5 7 6 5 5 4 3 4 5 6 6
3 5 4 3 2 5 7 7 3 2 4 5 4 4 3 3 4 4 4 5 1 2 5 2 5 3 2 3 2 0 2 3 5 5 5 6 7 7 6 6 7 6 6 7
3 3 4 4 3 5 5 5 6 4 5 10 6 4 4 2 4 2 5 0 4 4 2 4 4 4 3 2 2 3 5 6 6 7 6 7 8 7 7 7 6 5 6 8
3 2 3 5 3 1 3 3 4 2 9 7 5 5 4 3 5 2 4 3 1 4 5 4 4 5 3 3 2 4 5 6 7 7 7 9 9 8 8 7 7 7 7 7
2 2 1 1 2 3 2 2 8 1 5 4 5 4 4 2 4 3 3 6 6 4 4 4 2 3 3 4 5 6 6 6 7 6 7 8 7 9 11 5 6 7 7 7
1 2 0 1 1 3 2 3 5 5 5 4 4 5 2 3 3 3 3 6 5 5 4 4 4 4 4 4 5 6 6 7 7 7 8 9 9 5 5 7 9 8 7 7
Wind_Direction
278 277 276 276 273 270 261 177 210 239 146 179 184 224 209 257 222 246 263 300 243 193 192 183 196 208 211 182 155 182 188 160 218 214 220 203 177 185 164 149 208 167 168 251
276 273 268 271 269 253 162 197 245 223 199 187 213 233 228 272 219 221 211 224 268 219 186 207 228 209 356 321 166 163 168 199 144 331 352 349 198 182 128 107 90 180 156 253
278 272 262 267 264 247 207 165 229 257 209 228 214 213 228 209 239 273 311 301 317 235 227 269 238 310 352 352 170 84 143 143 178 220 199 164 192 185 158 141 135 172 203 209
274 268 261 261 260 244 194 200 219 208 199 202 222 212 214 212 214 218 161 235 217 224 290 222 226 242 292 2 109 80 130 171 158 197 182 172 188 171 171 167 178 162 205 192
269 262 257 255 252 239 181 171 193 265 264 208 203 227 212 224 209 201 230 226 226 201 205 201 259 200 185 222 136 99 35 178 130 107 145 168 159 184 171 169 159 225 165 216
267 258 254 250 246 216 153 196 211 260 260 207 210 211 221 232 204 225 233 205 219 229 220 228 231 216 232 188 163 159 124 132 93 195 152 135 298 204 175 171 117 145 161 206
265 258 252 253 247 210 167 204 159 241 258 231 233 226 236 218 222 217 191 208 212 218 146 111 56 39 60 116 91 149 137 103 84 161 81 203 250 183 183 124 85 99 93 131
253 252 253 256 261 196 195 172 179 217 260 271 286 287 225 275 261 229 282 248 227 305 134 100 83 342 48 322 63 65 138 129 117 143 181 274 336 177 144 153 205 166 135 7
268 248 251 255 249 221 199 191 176 253 203 227 301 262 256 183 239 203 216 255 266 207 107 111 156 183 174 191 120 40 62 70 116 134 154 197 217 235 212 103 217 179 129 77
309 260 254 252 236 227 173 137 176 219 175 282 286 276 302 226 190 173 149 78 302 127 113 114 150 202 185 162 163 171 79 41 139 137 175 280 248 273 279 147 220 136 129 139
320 284 257 258 227 226 169 139 183 188 193 258 328 22 326 307 34 153 188 66 277 34 94 137 166 165 198 116 163 172 152 151 172 98 68 248 188 255 162 165 90 136 146 149
315 311 257 247 221 185 163 135 163 196 149 265 315 268 109 12 328 324 334 154 214 232 110 166 117 123 87 140 172 5 88 168 170 164 187 315 331 111 83 91 115 146 131 134
317 306 288 235 224 211 160 136 138 147 173 242 354 357 326 305 2 293 265 303 143 314 177 168 133 104 143 129 118 117 39 36 88 100 22 45 37 45 60 80 93 85 83 82
316 309 291 218 200 171 150 147 154 204 115 126 53 350 341 294 356 355 222 303 313 91 4 63 92 110 356 119 139 112 208 31 104 74 105 82 31 40 79 81 87 90 90 97
310 300 258 228 277 176 117 80 35 286 137 158 127 136 309 326 339 17 28 304 27 51 34 30 66 73 84 20 65 66 355 146 141 164 132 118 144 51 55 66 49 44 61 46
302 272 297 283 248 132 88 22 259 201 184 99 102 172 197 317 58 113 355 58 92 90 71 63 61 7 96 90 102 287 1 67 72 144 136 112 106 77 66 90 81 79 78 64
287 250 263 279 168 130 149 199 228 173 118 136 80 34 326 149 356 351 11 23 45 74 86 38 51 23 64 75 133 221 143 86 80 112 112 97 232 126 84 92 85 78 76 63
267 243 283 149 129 95 309 256 182 134 135 80 108 299 28 16 56 34 5 36 20 22 91 19 50 10 51 113 253 306 330 3 146 219 199 149 121 112 106 90 103 80 58 30
249 283 142 101 113 182 248 124 117 79 137 133 112 140 191 20 80 74 33 48 51 311 75 36 88 328 110 220 244 299 309 91 132 79 97 115 127 147 145 125 94 91 32 329
144 101 90 133 200 185 105 10 21 4 340 53 106 142 144 109 63 33 75 20 113 78 293 340 66 319 274 280 251 255 262 244 148 126 146 151 169 174 174 177 175 186 205 229
54 134 124 92 128 78 39 104 107 318 341 190 154 144 134 271 117 150 161 162 144 79 317 84 57 322 254 341 44 356 289 212 200 199 180 179 173 179 183 185 189 210 235 236
203 108 102 85 70 61 103 175 251 196 199 184 125 159 145 78 93 91 341 93 38 90 14 64 26 255 179 329 7 20 113 121 127 145 149 165 200 203 200 210 249 253 256 272
35 65 98 116 314 67 155 187 225 159 181 162 141 92 109 65 55 65 67 67 109 99 46 213 224 251 255 244 216 288 317 183 164 196 214 190 199 206 205 230 240 256 271 265
74 112 120 160 197 223 193 171 165 193 131 130 108 74 88 71 61 114 77 80 81 46 60 243 250 233 249 248 181 175 222 232 248 250 258 241 229 236 240 235 254 252 265 274
94 104 174 204 233 231 174 158 95 107 131 113 90 60 81 24 85 34 109 55 120 186 219 229 230 224 242 282 278 254 250 241 241 234 231 240 237 238 252 239 232 228 242 254
96 200 109 240 78 9 83 89 121 101 121 89 59 95 69 47 118 80 179 153 198 232 212 221 201 226 242 250 260 263 263 256 252 248 238 246 246 233 235 255 230 232 225 247
301 301 182 182 150 161 158 130 137 149 89 109 105 85 141 94 63 167 180 199 210 199 217 205 207 232 266 273 284 283 282 277 265 256 255 245 248 223 207 240 249 234 239 225